Marshfield, WI

5:47 PM CDT on August 23, 2019 (GMT -0500)
Marshfield Municipal

Weather History for KMFI - July, 2019

Change the Weather History Date:

Sunday, July 21, 2019

  Actual Average Record
Temperature  
Mean Temperature 69 °F -  
Max Temperature 78 °F 82 °F 98 °F (1934)
Min Temperature 61 °F 56 °F 41 °F (1913)
Cooling Degree Days 4    
Growing Degree Days 19 (Base 50)    
Moisture  
Dew Point 57 °F    
Average Humidity 67    
Maximum Humidity 90    
Minimum Humidity 48    
Precipitation  
Precipitation 0.00 in - - ()
Sea Level Pressure  
Sea Level Pressure 30.02 in    
Wind  
Wind Speed 9 mph (North)    
Max Wind Speed 14 mph    
Max Gust Speed 20 mph    
Visibility 10 miles    
Events      
Averages and records for this station are not official NWS values.
T = Trace of Precipitation, MM = Missing Value Source: NWS Daily Summary

Daily Weather History Graph

Daily Weather History Graph

Search for Another Location

Airport or City:

Astronomy

Jul. 21, 2019 Rise Set
Actual Time 5:35 AM CDT 8:38 PM CDT
Civil Twilight 5:00 AM CDT 9:13 PM CDT
Nautical Twilight 4:15 AM CDT 9:57 PM CDT
Astronomical Twilight 3:21 AM CDT 10:51 PM CDT
Moon 11:22 PM CDT (7/21) 10:04 AM CDT (7/21)
Length of Visible Light 16h 13m
Length of Day
15h 03m
Waning Gibbous, 80% of the Moon is Illuminated
Jul 21
Waning Gibbous
Jul 24
Last Quarter
Jul 31
New
Aug 7
First Quarter
Aug 15
Full

Hourly Weather History & Observations

Time (CDT) Temp. Dew Point Humidity Pressure Visibility Wind Dir Wind Speed Gust Speed Precip Events Conditions
12:54 AM 63.0 °F 59.0 °F 87% 29.96 in 10.0 mi North 8.1 mph - N/A   Clear
1:54 AM 62.1 °F 59.0 °F 90% 29.96 in 10.0 mi North 9.2 mph - N/A   Clear
2:54 AM 62.1 °F 59.0 °F 90% 29.97 in 10.0 mi North 9.2 mph - N/A   Unknown
3:54 AM 61.0 °F 57.9 °F 90% 29.99 in 10.0 mi North 8.1 mph - N/A   Unknown
4:54 AM 62.1 °F 57.9 °F 86% 29.99 in 10.0 mi North 9.2 mph - N/A   Unknown
5:54 AM 61.0 °F 55.9 °F 83% 30.00 in 10.0 mi North 5.8 mph - N/A   Clear
6:54 AM 64.9 °F 57.0 °F 75% 30.00 in 10.0 mi North 8.1 mph - N/A   Clear
7:54 AM 66.9 °F 57.9 °F 73% 30.02 in 10.0 mi NNE 8.1 mph - N/A   Clear
8:54 AM 71.1 °F 59.0 °F 66% 30.04 in 10.0 mi NNE 6.9 mph - N/A   Clear
9:54 AM 73.9 °F 59.0 °F 59% 30.03 in 10.0 mi NNE 5.8 mph - N/A   Clear
10:54 AM 75.9 °F 55.0 °F 48% 30.04 in 10.0 mi NNE 8.1 mph - N/A   Clear
11:54 AM 75.9 °F 55.9 °F 50% 30.04 in 10.0 mi North 8.1 mph - N/A   Clear
12:54 PM 77.0 °F 55.9 °F 48% 30.05 in 10.0 mi NNW 12.7 mph - N/A   Clear
1:54 PM 77.0 °F 57.9 °F 52% 30.03 in 10.0 mi NNW 10.4 mph - N/A   Clear
2:54 PM 77.0 °F 57.0 °F 50% 30.03 in 10.0 mi NW 13.8 mph 19.6 mph N/A   Clear
3:54 PM 75.9 °F 57.9 °F 54% 30.03 in 10.0 mi North 11.5 mph - N/A   Partly Cloudy
4:54 PM 75.9 °F 57.9 °F 54% 30.03 in 10.0 mi NNW 12.7 mph - N/A   Scattered Clouds
5:54 PM 73.9 °F 57.9 °F 57% 30.03 in 10.0 mi Variable 6.9 mph - N/A   Clear
6:54 PM 73.9 °F 57.9 °F 57% 30.03 in 10.0 mi NNE 5.8 mph - N/A   Partly Cloudy
7:54 PM 72.0 °F 57.0 °F 59% 30.05 in 10.0 mi NNE 8.1 mph - N/A   Clear
8:54 PM 69.1 °F 57.0 °F 65% 30.05 in 10.0 mi Variable 6.9 mph - N/A   Partly Cloudy
9:54 PM 68.0 °F 55.9 °F 65% 30.05 in 10.0 mi NNE 8.1 mph - N/A   Clear
10:54 PM 66.0 °F 55.9 °F 70% 30.06 in 10.0 mi NNE 8.1 mph - N/A   Partly Cloudy
11:54 PM 66.0 °F 55.9 °F 70% 30.08 in 10.0 mi NNE 8.1 mph - N/A   Mostly Cloudy